Wind_Speed
18 18 18 18 17 17 17 17 17 16 16 16 15 15 15 15 16 16 15 15 15 15 16 16 16 17 17 17 18 19 20 20 20 20 21 22 22 23 23 23 24 24 25
19 19 19 19 19 18 18 18 18 17 17 16 16 16 16 16 16 16 16 16 16 17 18 17 17 18 19 19 20 20 21 22 22 22 22 23 24 24 24 25 25 25 26
20 20 19 20 20 19 18 18 18 18 18 18 18 18 18 17 17 17 18 18 18 18 18 18 18 18 19 20 21 22 22 23 23 23 24 24 24 24 25 25 26 26 27
20 21 20 19 20 19 18 18 18 18 18 18 18 19 19 18 19 18 18 18 18 19 19 20 20 20 20 21 22 22 23 24 25 25 25 25 26 26 26 27 26 27 28
20 21 20 20 20 20 19 19 18 18 18 18 19 19 19 19 19 19 19 19 20 20 20 21 21 21 22 22 23 23 24 25 26 26 26 27 27 27 28 28 29 28 28
20 20 20 20 20 21 20 19 19 18 18 18 19 19 20 19 19 19 19 20 21 21 22 22 23 23 24 24 24 24 24 25 25 27 28 28 28 29 29 30 31 30 30
20 21 20 20 20 20 19 19 19 19 19 19 19 19 19 20 19 20 21 21 22 23 24 24 25 25 25 26 25 25 25 25 25 26 27 28 30 31 30 31 31 32 32
20 21 19 19 19 18 18 18 19 18 18 18 19 20 20 20 21 21 22 23 24 24 25 25 26 26 26 27 27 27 26 26 27 28 28 28 28 30 32 32 32 33 33
20 20 19 19 18 18 18 19 18 18 17 18 19 20 21 21 21 22 23 24 24 25 26 26 26 26 27 27 27 27 27 28 28 29 29 29 29 30 31 32 33 33 33
20 21 20 19 18 18 18 18 18 17 18 19 20 21 22 22 23 24 24 25 25 25 26 26 26 26 27 28 28 29 29 29 29 29 29 30 31 31 32 34 33 33 34
19 19 19 19 19 18 17 17 17 18 19 19 20 21 22 23 24 24 25 25 26 26 26 26 26 27 28 29 29 29 29 29 30 30 30 31 33 34 34 33 34 34 33
18 18 18 18 18 17 16 17 17 18 19 20 21 21 22 23 23 24 25 25 26 26 27 27 27 28 29 29 29 29 30 30 31 31 31 32 33 33 33 33 33 34 35
18 18 18 18 18 17 17 18 18 19 19 20 20 20 22 23 24 25 25 26 27 27 28 28 28 29 30 30 30 30 31 31 32 32 32 32 33 32 32 33 34 34 35
18 18 18 18 17 17 17 18 19 19 19 20 20 21 23 23 25 26 26 26 27 28 28 28 29 30 31 32 32 32 32 32 32 33 33 33 33 34 34 34 35 35 35
16 17 17 16 16 17 18 19 19 18 18 19 21 21 23 24 25 26 26 27 27 28 28 28 29 30 31 31 31 32 32 32 33 33 33 33 33 34 35 35 36 36 36
16 15 15 15 16 16 17 18 18 18 19 20 20 21 22 24 25 25 26 27 27 28 28 29 29 30 31 31 31 32 32 33 33 33 32 32 33 34 35 36 37 37 37
13 13 14 14 15 16 16 17 17 18 19 19 20 22 22 23 24 25 26 26 27 28 29 29 30 31 31 31 32 32 33 32 33 33 33 33 34 35 36 36 37 38 38
13 13 13 13 15 16 17 17 17 18 19 20 20 21 22 23 24 25 25 26 27 28 29 30 30 31 31 32 32 33 33 32 32 32 32 33 33 34 35 35 36 37 38
10 11 12 13 14 16 16 17 17 18 18 19 21 22 23 23 23 25 25 25 27 28 29 29 30 30 31 32 32 32 32 31 31 31 31 32 33 34 35 35 36 37 38
9 10 12 13 14 15 16 16 16 16 17 19 20 21 23 23 24 24 25 26 27 28 28 28 28 28 29 30 31 30 30 30 30 31 32 33 34 34 34 35 35 36 37
9 10 11 12 13 13 14 15 15 16 17 18 19 20 21 22 23 25 25 26 27 28 28 28 27 27 28 28 28 29 29 29 30 31 32 32 33 33 34 35 36 37 38
9 9 10 11 11 12 12 13 15 16 17 18 19 20 21 22 23 24 25 27 28 28 28 28 28 28 28 28 27 28 28 28 29 30 31 32 32 33 34 35 36 37 38
9 9 10 11 12 13 13 14 15 15 16 17 18 19 21 23 24 25 26 27 28 28 28 28 28 28 28 28 27 27 27 27 29 29 30 31 32 32 33 34 35 36 37
9 9 10 11 12 12 13 14 15 15 16 17 18 20 21 23 24 25 26 27 28 28 28 28 28 28 27 27 28 28 27 27 27 28 29 29 29 30 32 33 34 34 35
8 9 10 10 11 12 13 14 14 15 16 17 18 19 21 24 25 26 26 27 27 27 28 28 28 28 27 27 28 28 27 26 26 26 27 27 27 28 30 31 32 32 33
8 9 10 11 13 13 14 14 15 16 17 18 19 20 22 24 25 26 26 26 27 27 27 27 27 27 27 27 27 26 26 26 25 24 24 25 26 26 27 28 29 30 31
Wind_Direction
274 276 273 273 272 274 276 278 280 282 283 283 284 285 285 283 282 280 278 276 273 270 269 269 267 266 264 265 263 262 261 260 258 257 254 252 253 250 245 244 244 243 242
274 275 272 271 272 274 275 276 277 278 279 280 282 284 284 282 281 279 277 274 272 271 269 268 268 269 268 267 265 264 263 261 259 257 255 254 253 252 247 245 244 244 243
274 273 276 273 272 273 274 274 275 277 277 278 280 282 283 281 279 279 276 275 274 272 270 269 270 271 272 271 270 267 264 263 261 260 257 255 255 252 250 248 247 246 246
273 273 278 274 271 271 271 272 273 274 275 276 278 281 283 282 280 279 277 274 273 272 272 273 274 275 276 275 272 269 265 263 262 259 257 255 255 254 251 251 249 250 248
269 272 274 272 270 269 268 270 272 272 272 276 279 280 283 282 280 280 278 275 273 273 275 276 277 278 278 277 274 272 268 266 263 260 258 257 256 255 252 251 252 252 251
267 272 272 270 270 268 266 269 271 273 272 274 277 280 283 283 282 283 281 279 278 277 277 278 278 278 278 277 276 274 270 268 264 262 261 259 257 256 253 252 252 252 252
268 270 271 271 270 267 266 268 270 272 273 276 279 282 284 285 285 285 284 282 281 280 279 278 278 277 276 276 276 276 272 268 266 264 262 260 258 256 254 253 252 251 252
270 272 273 272 270 265 267 269 271 272 273 276 280 283 284 285 285 286 285 283 282 282 281 280 279 278 277 276 277 275 272 269 267 266 265 263 260 256 253 253 252 252 252
274 275 277 275 273 273 270 269 273 277 276 277 279 281 283 284 286 287 286 285 283 282 282 281 279 278 278 277 276 275 272 270 268 267 266 265 263 260 255 254 253 252 252
272 273 275 274 275 277 277 273 273 277 278 279 280 282 284 285 288 288 288 285 284 283 283 282 281 280 279 279 278 276 273 271 270 269 269 267 265 262 258 255 254 253 252
271 273 271 271 274 276 276 275 276 278 279 280 281 284 287 288 289 289 289 288 286 284 284 283 282 282 281 280 278 276 275 274 272 270 270 269 265 262 259 257 255 254 252
272 272 273 272 273 275 277 277 277 280 282 282 283 287 289 290 290 290 289 288 288 287 286 285 284 283 283 281 279 278 277 275 274 273 271 270 266 262 259 257 256 255 254
270 271 274 273 271 272 275 278 279 284 285 283 284 288 290 290 290 290 290 290 289 289 288 287 286 285 284 282 281 280 278 277 275 275 273 270 267 263 260 258 257 256 255
267 268 269 269 269 274 278 282 284 285 285 285 285 290 292 292 291 291 290 290 290 290 290 289 287 286 285 284 282 281 279 278 277 276 273 269 265 263 261 259 258 257 256
268 269 269 271 273 277 282 285 286 285 285 287 291 294 293 291 292 292 293 292 291 290 290 289 288 288 287 285 285 284 282 280 278 276 273 269 266 264 262 261 259 257 257
272 273 274 274 276 280 284 285 285 285 287 289 294 296 296 294 294 295 295 295 293 291 289 289 289 289 289 288 287 286 285 282 279 276 273 270 267 265 263 261 259 257 257
273 274 275 278 280 283 286 286 286 286 289 290 293 296 298 299 298 298 297 296 293 292 291 291 289 289 289 289 289 287 286 283 279 276 273 271 269 267 265 263 261 258 258
275 278 281 284 286 286 288 288 288 289 291 293 296 300 302 302 301 301 301 299 297 295 295 293 291 291 290 290 288 288 288 284 279 276 273 272 271 269 268 266 263 261 259
280 281 285 290 293 291 289 289 289 291 294 297 298 300 302 304 305 305 303 303 302 300 299 297 296 295 294 293 291 291 288 284 281 278 276 274 273 271 269 267 265 262 260
292 290 294 297 298 295 292 291 292 296 298 299 300 302 303 305 306 308 308 307 306 305 304 302 302 301 298 296 294 292 289 284 282 279 278 276 274 272 270 268 266 263 261
301 301 302 304 302 297 295 296 297 298 299 301 304 306 308 310 310 311 311 310 309 308 306 306 306 304 302 299 297 294 290 287 284 282 279 277 275 273 271 269 266 264 263
302 303 304 304 305 304 300 302 302 303 305 308 311 313 315 316 315 313 313 312 311 310 310 308 306 306 305 303 301 298 296 291 287 284 281 278 277 275 273 271 269 267 265
309 310 310 312 313 312 312 310 312 314 315 315 316 318 319 319 318 317 316 316 315 313 311 310 309 308 307 306 303 301 299 296 293 289 286 283 279 278 276 273 271 269 268
317 318 317 318 319 319 319 320 322 320 321 321 321 320 321 323 323 321 321 319 318 317 315 313 313 311 309 307 306 304 301 299 297 293 289 286 282 280 278 277 274 271 269
320 323 325 325 322 321 325 328 326 324 325 326 326 326 326 327 326 325 323 322 321 320 317 316 316 314 311 308 307 306 305 302 299 297 293 290 286 283 281 279 277 275 273
328 328 327 328 328 328 330 329 329 330 330 330 330 328 328 329 329 329 328 326 325 323 320 318 317 316 314 311 309 308 307 305 302 300 297 294 291 287 283 282 281 279 277
Height
5846 5846 5846 5846 5845 5845 5844 5844 5843 5842 5841 5841 5840 5840 5839 5838 5837 5837 5837 5836 5836 5836 5836 5835 5835 5835 5835 5835 5836 5835 5836 5836 5836 5837 5837 5838 5838 5839 5840 5842 5843 5845 5847
5842 5842 5842 5842 5841 5841 5840 5840 5840 5839 5838 5837 5837 5836 5835 5835 5834 5833 5833 5832 5832 5832 5832 5831 5831 5831 5831 5831 5831 5831 5831 5831 5831 5831 5832 5832 5833 5834 5835 5836 5838 5839 5841
5838 5838 5838 5837 5837 5837 5836 5836 5836 5835 5834 5834 5833 5832 5831 5831 5830 5830 5829 5828 5828 5827 5827 5827 5826 5826 5826 5825 5825 5825 5825 5825 5825 5826 5826 5827 5827 5828 5829 5830 5832 5833 5835
5834 5834 5834 5833 5832 5832 5832 5832 5831 5831 5830 5830 5829 5828 5827 5827 5826 5825 5825 5824 5823 5823 5822 5822 5822 5821 5821 5820 5820 5819 5819 5819 5819 5820 5820 5821 5822 5822 5824 5824 5825 5827 5828
5829 5829 5829 5828 5828 5828 5827 5828 5827 5826 5826 5825 5825 5824 5823 5823 5822 5821 5820 5819 5819 5818 5818 5817 5816 5816 5815 5815 5814 5813 5813 5813 5813 5813 5814 5814 5815 5816 5817 5818 5819 5820 5821
5824 5824 5824 5823 5823 5823 5823 5823 5822 5822 5821 5821 5820 5820 5819 5818 5817 5817 5816 5815 5814 5813 5812 5812 5811 5810 5809 5808 5808 5807 5806 5806 5806 5806 5807 5807 5808 5809 5810 5811 5812 5813 5814
5820 5819 5819 5819 5818 5818 5818 5818 5818 5817 5817 5816 5816 5815 5814 5813 5813 5812 5811 5810 5809 5808 5807 5806 5805 5804 5803 5802 5801 5800 5799 5799 5799 5799 5799 5800 5800 5800 5801 5803 5804 5805 5807
5816 5815 5814 5814 5813 5813 5814 5813 5813 5812 5812 5812 5811 5811 5810 5809 5808 5807 5805 5804 5803 5802 5801 5799 5798 5797 5796 5794 5794 5793 5792 5792 5791 5791 5791 5791 5792 5792 5793 5794 5795 5797 5798
5811 5811 5810 5810 5809 5809 5809 5809 5809 5808 5808 5807 5807 5806 5805 5804 5803 5802 5800 5798 5797 5796 5794 5793 5791 5790 5789 5787 5786 5785 5785 5784 5784 5783 5783 5783 5784 5784 5784 5785 5786 5788 5789
5807 5806 5806 5805 5805 5805 5805 5804 5804 5803 5803 5802 5801 5800 5799 5798 5797 5796 5794 5792 5791 5789 5787 5786 5784 5783 5781 5780 5779 5778 5777 5776 5776 5775 5775 5774 5775 5775 5775 5776 5777 5778 5780
5802 5802 5801 5801 5801 5801 5800 5800 5799 5799 5798 5797 5796 5795 5794 5792 5791 5789 5788 5786 5784 5782 5780 5779 5777 5775 5774 5772 5771 5770 5769 5768 5767 5766 5766 5765 5765 5766 5766 5767 5768 5769 5770
5797 5797 5797 5796 5796 5796 5796 5795 5795 5794 5793 5792 5791 5789 5788 5787 5785 5783 5781 5779 5777 5775 5773 5771 5769 5767 5765 5764 5763 5761 5760 5759 5758 5757 5756 5756 5755 5755 5756 5757 5758 5759 5760
5792 5792 5792 5792 5791 5791 5791 5791 5790 5789 5788 5786 5785 5783 5782 5780 5778 5776 5774 5772 5770 5768 5765 5763 5761 5759 5757 5755 5754 5753 5751 5750 5749 5748 5747 5746 5745 5746 5746 5747 5748 5750 5751
5787 5787 5787 5787 5787 5786 5786 5786 5785 5784 5782 5781 5779 5778 5776 5774 5771 5769 5767 5765 5763 5760 5758 5755 5753 5750 5748 5746 5744 5743 5742 5741 5739 5738 5736 5736 5735 5736 5736 5737 5738 5740 5741
5782 5782 5782 5782 5782 5782 5781 5781 5779 5778 5777 5775 5774 5772 5770 5768 5765 5762 5760 5757 5755 5753 5750 5747 5744 5741 5738 5736 5734 5733 5732 5730 5729 5727 5726 5726 5725 5726 5726 5727 5728 5729 5730
5777 5778 5778 5778 5777 5777 5776 5775 5774 5773 5771 5770 5768 5766 5764 5761 5759 5755 5752 5749 5747 5744 5742 5739 5736 5733 5729 5727 5725 5723 5721 5719 5718 5716 5715 5715 5715 5715 5715 5716 5717 5718 5719
5774 5774 5774 5774 5773 5772 5771 5770 5769 5767 5766 5765 5763 5760 5758 5755 5752 5748 5745 5742 5738 5735 5732 5730 5727 5724 5721 5718 5715 5713 5710 5708 5706 5705 5704 5704 5704 5704 5704 5704 5705 5706 5707
5771 5771 5770 5770 5769 5768 5767 5765 5764 5762 5761 5759 5757 5754 5752 5749 5745 5742 5738 5734 5731 5727 5724 5721 5717 5714 5711 5708 5705 5702 5699 5697 5695 5694 5693 5693 5692 5692 5692 5693 5694 5694 5695
5768 5768 5767 5766 5765 5763 5762 5760 5759 5758 5756 5754 5751 5749 5746 5743 5739 5735 5731 5727 5723 5719 5715 5711 5708 5704 5701 5698 5695 5692 5689 5686 5684 5683 5682 5681 5681 5681 5681 5681 5681 5682 5683
5765 5765 5764 5762 5760 5759 5757 5755 5754 5753 5751 5748 5746 5743 5740 5737 5733 5729 5725 5720 5715 5711 5707 5703 5699 5695 5692 5688 5684 5682 5679 5676 5674 5673 5671 5670 5670 5669 5669 5669 5670 5670 5671
5763 5762 5760 5758 5756 5755 5753 5751 5750 5748 5746 5743 5741 5737 5734 5730 5726 5722 5718 5713 5708 5704 5699 5695 5691 5687 5683 5679 5675 5672 5669 5667 5664 5662 5661 5660 5659 5658 5658 5657 5657 5658 5658
5760 5759 5757 5755 5753 5751 5749 5748 5746 5743 5741 5738 5735 5732 5728 5724 5720 5716 5711 5706 5701 5696 5692 5687 5683 5679 5675 5671 5667 5663 5660 5657 5655 5653 5650 5649 5648 5647 5646 5646 5645 5645 5646
5758 5756 5754 5752 5750 5748 5746 5744 5741 5739 5736 5733 5730 5727 5723 5719 5714 5709 5705 5700 5694 5689 5684 5680 5675 5671 5667 5663 5659 5655 5651 5648 5645 5643 5640 5639 5637 5636 5635 5634 5633 5633 5633
5755 5754 5752 5750 5748 5746 5743 5740 5738 5735 5732 5729 5726 5722 5718 5713 5708 5703 5699 5693 5688 5682 5678 5673 5668 5663 5659 5654 5651 5647 5643 5640 5636 5633 5631 5629 5628 5626 5624 5623 5621 5621 5621
5754 5752 5750 5748 5745 5743 5740 5738 5735 5732 5728 5725 5721 5718 5713 5709 5704 5698 5693 5688 5682 5676 5671 5666 5661 5656 5652 5647 5643 5639 5635 5631 5628 5625 5622 5620 5618 5616 5614 5612 5611 5609 5609
5752 5750 5748 5746 5743 5741 5738 5735 5732 5728 5725 5721 5717 5713 5709 5704 5699 5693 5688 5682 5676 5671 5665 5659 5654 5649 5645 5640 5636 5631 5627 5624 5620 5618 5614 5612 5609 5607 5605 5603 5601 5599 5598